Flag for Canada Weather past 2 weeks in Churchill, Manitoba, Canada

Now
19 °F

Low clouds.


Feels Like: 4 °F
Forecast: 11 / 16 °F
Wind: 20 mph from Northeast

Location: Churchill

Current Time: Apr 21, 2015 at 12:59:45 AM

Latest Report: Apr 21, 2015 at 12:00 AM


Visibility: 15 mi

Pressure: 30.15 "Hg

Humidity: 86%

Dew point: 16 °F

Location of ChurchillLocation

Historic Weather in Churchill — Graph

°F

Churchill temperature yesterday

Maximum temperature yesterday: 27 °F (at 1:00 PM)
Minimum temperature yesterday: 12 °F (at 6:00 AM)
Average temperature yesterday: 20 °F

Past Weeks' High & Low Weather Summary

 TemperatureHumidityPressure
High48 °F (Apr 12, 1:00 PM)100% (Apr 9, 6:52 AM)30.37 "Hg (Apr 9, 6:52 AM)
Low-13 °F (Apr 6, 6:00 AM)35% (Apr 8, 3:00 PM)28.97 "Hg (Apr 12, 3:00 PM)
Average20 °F81%29.93 "Hg
* Reported Midnight between Apr 5 and Apr 6 — Midnight between Apr 20 and Apr 21, Churchill, Weather by CustomWeather, © 2015

Note: Actual official high and low records may vary slightly from our data, if they occured in-between our weather recording intervals... More about our weather records

Advertising

Churchill weather history for previous 24 hours

 ConditionsComfort  
Time TempWeatherWind HumidityBarometerVisibility
12:00 AM
Tue, Apr 21
19 °FLow clouds.20 mph86%30.15 "Hg15 mi
11:00 PM
Mon, Apr 20
21 °FLow clouds.18 mph86%30.15 "Hg15 mi
10:00 PM21 °FLow clouds.18 mph93%30.15 "Hg15 mi
9:00 PM21 °FLow clouds.16 mph93%30.16 "Hg15 mi
8:00 PM21 °FLow clouds.14 mph93%30.15 "Hg15 mi
7:00 PM25 °FLow clouds.14 mph86%30.14 "Hg15 mi
6:00 PM25 °FPartly sunny.14 mph86%30.13 "Hg15 mi
5:00 PM27 °FPartly sunny.12 mph86%30.12 "Hg15 mi
4:00 PM27 °FPartly sunny.12 mph80%30.12 "Hg15 mi
3:00 PM27 °FPassing clouds.9 mph74%30.12 "Hg15 mi
2:00 PM27 °FScattered clouds.9 mph69%30.12 "Hg15 mi
1:00 PM27 °FScattered clouds.10 mph74%30.12 "Hg15 mi
12:00 PM25 °FScattered clouds.7 mph80%30.11 "Hg15 mi
11:00 AM21 °FBroken clouds.8 mph93%30.12 "Hg15 mi
10:00 AM19 °FScattered clouds.6 mph93%30.12 "Hg15 mi
9:00 AM18 °FPassing clouds.7 mph93%30.12 "Hg10 mi
8:00 AM14 °FIce fog.12 mph100%30.12 "Hg1 mi
7:00 AM14 °FIce fog.7 mph92%30.12 "Hg1 mi
6:53 AM14 °FIce fog.7 mph92%30.12 "Hg1 mi
6:00 AM12 °FIce fog.6 mph92%30.12 "Hg0 mi
5:00 AM14 °FIce fog.6 mph92%30.11 "Hg0 mi
4:00 AM14 °FIce fog.6 mph92%30.12 "Hg1 mi
3:00 AM14 °FIce fog.6 mph92%30.14 "Hg1 mi
2:00 AM16 °FIce fog.6 mph93%30.15 "Hg1 mi
1:00 AM16 °FIce fog.5 mph100%30.16 "Hg1 mi
12:00 AM18 °FClear.6 mph93%30.17 "Hg15 mi
Weather by CustomWeather, © 2015

See weather overviewHow to use our weather pages